This is the latest recevied weather packets stored in our database for station/object KG5WBN. If no packets are shown the sender has not sent any weather packets the latest 10 day(s).
| Time | Temp. | Humidity | Pressure | Rain* | Wind** | Luminosity | Snow |
|---|---|---|---|---|---|---|---|
| 1787921785 | 26.67° C | 85% | 1015.6 hPa | 0 mm | - | 30 W/m² | - |
| 1787921484 | 26.67° C | 87% | 1015.6 hPa | 0 mm | - | 29 W/m² | - |
| 1787921179 | 26.67° C | 90% | 1015.6 hPa | 0 mm | - | 30 W/m² | - |
| 1787920874 | 26.67° C | 93% | 1015.9 hPa | 0 mm | - | 30 W/m² | - |
| 1787920569 | 26.11° C | 99% | 1015.6 hPa | 0 mm | - | 26 W/m² | - |
| 1787920264 | 26.11° C | 99% | 1015.6 hPa | 0 mm | - | 29 W/m² | - |
| 1787919962 | 25.56° C | 99% | 1015.2 hPa | 0 mm | - | 32 W/m² | - |
| 1787919661 | 25.56° C | 99% | 1015.2 hPa | 0 mm | - | 22 W/m² | - |
| 1787919357 | 25.56° C | 99% | 1015.2 hPa | 0 mm | - | 18 W/m² | - |
| 1787919052 | 25° C | 99% | 1015.2 hPa | 0 mm | - | 13 W/m² | - |
| 1787918747 | 25° C | 99% | 1015.2 hPa | 0 mm | - | 11 W/m² | - |
| 1787918446 | 25° C | 99% | 1015.2 hPa | 0 mm | - | 10 W/m² | - |
| 1787918144 | 25° C | 99% | 1014.9 hPa | 0 mm | - | 6 W/m² | - |
| 1787917839 | 25° C | 99% | 1015.2 hPa | 0 mm | - | 5 W/m² | - |
| 1787917536 | 25° C | 99% | 1014.9 hPa | 0 mm | - | 2 W/m² | - |
| 1787917232 | 25° C | 99% | 1014.9 hPa | 0 mm | - | 1 W/m² | - |
| 1787916926 | 25° C | 99% | 1014.9 hPa | 0 mm | - | 0 W/m² | - |
| 1787916625 | 25° C | 99% | 1014.6 hPa | 0 mm | - | 0 W/m² | - |
| 1787916320 | 25° C | 99% | 1014.6 hPa | 0 mm | - | 0 W/m² | - |
| 1787916015 | 25° C | 99% | 1014.6 hPa | 0 mm | - | 0 W/m² | - |
| 1787915710 | 25° C | 99% | 1014.6 hPa | 0 mm | - | 0 W/m² | - |
| 1787915406 | 25° C | 98% | 1014.6 hPa | 0 mm | - | 0 W/m² | - |
| 1787915106 | 25° C | 97% | 1014.6 hPa | 0 mm | - | 0 W/m² | - |
| 1787914805 | 25° C | 97% | 1014.6 hPa | 0 mm | - | 0 W/m² | - |
| 1787914504 | 25° C | 96% | 1014.6 hPa | 0 mm | - | 0 W/m² | - |
* Rain latest hour (hover to see other rain measurements)
** Current wind speed in m/s (hover to see current wind gust speed)